CAPE
0 0 0 0 0 0 0 0 0 0 0 0 0 0 0 0 0 0 0 0 1 1
0 0 0 0 0 0 0 0 0 0 0 0 0 0 0 0 0 0 0 0 1 1
0 0 0 0 0 0 0 0 0 0 0 0 0 0 0 0 0 0 0 0 2 0
0 0 0 0 0 0 0 0 0 0 0 0 0 0 1 0 0 1 0 0 1 2
0 0 0 0 0 0 0 0 0 0 0 0 0 0 0 0 0 0 0 0 1 2
0 0 0 0 0 0 0 0 0 0 0 0 0 0 0 0 0 0 0 0 1 1
0 0 0 0 0 0 0 0 0 0 0 0 0 0 1 0 0 0 0 0 1 1
0 0 0 0 0 0 0 0 0 0 0 0 0 0 3 0 0 1 0 0 0 0
0 0 0 0 0 0 0 0 0 0 0 0 0 6 12 0 0 0 0 0 0 0
0 0 0 0 0 0 0 0 0 0 0 0 0 3 1 1 0 1 0 0 0 0
0 0 0 0 0 0 0 0 0 0 0 0 0 4 1 1 0 0 0 0 0 0
0 0 0 0 0 0 0 0 0 0 0 0 0 3 1 0 0 0 0 0 0 0
0 0 0 0 0 0 0 0 0 0 0 0 0 0 3 0 0 0 0 0 0 0
0 0 0 0 0 0 0 0 0 0 0 0 0 0 4 1 0 0 0 0 0 0
CIN
-0 -0 -0 -0 -0 -0 -0 -0 -0 -0 -0 -0 -0 -0 -0 -0 -0 -0 -0 -0 -0 -0
-0 -0 -0 -0 -0 -0 -0 -0 -0 -0 -0 -0 -0 -0 -0 -0 -0 -0 -0 -0 -0 -0
-0 -0 -0 -0 -0 -0 -0 -0 -0 -0 -0 -0 -0 -0 -0 -0 -0 -0 -0 -0 -0 -0
-0 -0 -0 -0 -0 -0 -0 -0 -0 -0 -0 -0 -0 -0 -0 -0 -0 -0 -0 -0 -0 -0
-0 -0 -0 -0 -0 -0 -0 -0 -0 -0 -0 -0 -0 -0 -0 -0 -0 -0 -0 -0 -0 -0
-0 -0 -0 -0 -0 -0 -0 -0 -0 -0 -0 -0 -0 -0 -0 -0 -0 -0 -0 -0 -0 -0
-0 -0 -0 -0 -0 -0 -0 -0 -0 -0 -0 -0 -0 -0 -1 -0 -0 -0 -1 -0 -0 -0
-0 -0 -0 -0 -0 -0 -0 -0 -0 -0 -0 -0 -0 -0 -1 -2 -0 -0 -0 -0 -0 -0
-0 -0 -0 -0 -0 -0 -0 -0 -0 -0 -0 -0 -0 -0 -0 -0 -1 -0 -1 -2 -0 -0
-0 -0 -0 -0 -0 -0 -0 -0 -0 -0 -0 -0 -0 -1 -2 -1 -0 -0 -0 -0 -0 -0
-0 -0 -0 -0 -0 -0 -0 -0 -0 -0 -0 -0 -0 -0 -2 -1 -0 -0 -0 -0 -0 -0
-0 -0 -0 -0 -0 -0 -0 -0 -0 -0 -0 -0 -0 -0 -2 -0 -0 -0 -0 -0 -0 -0
-0 -0 -0 -0 -0 -0 -0 -0 -0 -0 -0 -0 -0 -0 -2 -2 -0 -0 -0 -0 -0 -0
-0 -0 -0 -0 -0 -0 -0 -0 -0 -0 -0 -0 -0 -0 -1 -2 -1 -0 -0 -0 -0 -0
Wind_Speed
31 32 32 33 34 33 32 30 29 30 31 31 30 32 32 29 34 31 29 27 25 25
31 32 33 33 33 32 31 29 28 27 27 28 29 31 32 32 34 32 29 27 26 24
30 31 31 31 34 33 32 30 29 26 25 25 27 30 31 32 33 33 28 28 27 25
29 30 30 32 32 33 32 32 31 27 25 25 26 28 30 32 33 32 28 28 27 25
28 30 31 32 32 32 33 32 31 29 26 26 26 26 29 31 32 30 28 27 28 26
29 31 31 31 31 32 32 33 32 30 28 26 26 26 26 29 29 29 27 24 25 27
28 30 30 30 31 31 32 34 34 31 29 26 25 26 24 25 28 29 28 24 23 26
26 28 29 31 31 31 32 34 35 34 31 28 25 26 26 23 25 27 27 24 22 23
25 28 29 30 31 32 33 34 36 37 34 31 26 27 29 28 24 26 26 24 22 21
24 27 29 30 31 32 33 33 36 37 35 33 29 30 31 31 26 25 27 25 22 21
22 25 27 29 31 32 33 34 34 36 37 33 31 31 31 30 29 27 27 27 23 21
20 23 26 28 29 30 32 34 34 34 37 36 33 32 32 28 25 28 28 26 23 22
17 21 24 26 28 29 30 33 32 33 34 35 33 31 34 33 23 25 27 26 24 23
16 19 21 24 25 27 30 31 34 34 33 34 34 30 33 32 27 16 26 25 21 23
Wind_Direction
16 15 15 13 12 12 11 11 10 8 8 9 12 12 11 18 356 329 325 322 313 310
16 16 15 16 15 16 15 15 13 12 12 12 12 10 9 7 356 335 326 321 316 304
18 19 20 20 18 17 17 18 18 18 17 16 13 9 7 3 359 340 326 327 318 313
20 21 22 20 20 20 19 19 20 21 19 17 15 12 9 3 348 337 325 328 324 315
22 22 21 21 22 22 20 21 21 22 23 22 20 17 9 358 341 330 324 324 329 320
20 20 22 23 23 23 22 21 23 24 25 26 25 22 21 3 334 333 326 315 319 327
21 21 24 25 25 24 24 22 21 26 27 29 29 28 31 21 349 341 330 314 313 328
23 24 26 26 27 27 26 25 21 24 28 31 33 30 29 29 13 351 325 314 310 315
25 25 26 28 29 29 28 27 24 21 25 29 34 29 24 22 19 360 319 311 306 306
27 27 28 30 31 30 28 28 25 22 23 26 31 28 24 13 15 6 327 315 304 303
29 28 30 31 32 32 31 29 28 25 23 27 29 28 25 20 1 354 333 331 300 298
33 31 32 32 33 33 33 30 31 30 26 26 28 28 28 31 25 333 331 320 303 296
36 35 33 34 35 35 35 33 33 32 30 27 28 31 29 28 39 0 323 324 305 298
39 37 37 37 37 37 35 34 31 32 32 29 29 32 29 30 35 49 318 316 292 300